Flag for Cambodia Weather past 2 weeks in Phnom Penh, Cambodia

Now
77 °F

Passing clouds.


Feels Like: 78 °F
Forecast: 75 / 91 °F
Wind: 3 mph from South

Location: Phnom-Penh / Pochentong

Current Time: Sep 18, 2014 at 2:37:20 AM

Latest Report: Sep 18, 2014 at 1:00 AM


Visibility: 6 mi

Pressure: 29.80 "Hg

Humidity: 94%

Dew point: 75 °F

Location of Phnom PenhLocation

Historic Weather in Phnom Penh — Graph

°F

Phnom Penh temperature yesterday

Maximum temperature yesterday: 86 °F (at 10:00 AM)
Minimum temperature yesterday: 77 °F (at 12:00 AM)
Average temperature yesterday: 80 °F

Past Weeks' High & Low Weather Summary

 TemperatureHumidityPressure
High93 °F (Sep 3, 12:00 PM)100% (Sep 4, 5:00 PM)29.86 "Hg (Sep 4, 5:00 PM)
Low75 °F (Sep 4, 5:00 PM)20% (Sep 12, 1:00 AM)29.56 "Hg (Sep 15, 3:30 PM)
Average83 °F77%29.72 "Hg
* Reported Sep 3 1:00 AM — Sep 18 1:00 AM, Phnom Penh, Weather by CustomWeather, © 2014

Note: Actual official high and low records may vary slightly from our data, if they occured in-between our weather recording intervals... More about our weather records

Advertising

Phnom Penh weather history for previous 24 hours

 ConditionsComfort  
Time TempWeatherWind HumidityBarometerVisibility
1:00 AM
Sep 18
77 °FPassing clouds.3 mph94%29.80 "Hg6 mi
12:30 AM77 °FPassing clouds.5 mph94%29.80 "Hg6 mi
12:00 AM77 °FPassing clouds.5 mph94%29.83 "Hg6 mi
11:30 PM
Sep 17
77 °FPassing clouds.5 mph94%29.83 "Hg6 mi
11:00 PM77 °FPassing clouds.6 mph94%29.83 "Hg6 mi
10:30 PM77 °FPartly cloudy.5 mph94%29.83 "Hg6 mi
10:00 PM79 °FPartly cloudy.7 mph89%29.83 "Hg6 mi
9:30 PM79 °FPartly cloudy.6 mph89%29.83 "Hg6 mi
9:00 PM79 °FPartly cloudy.6 mph89%29.80 "Hg6 mi
8:30 PM79 °FPartly cloudy.6 mph89%29.80 "Hg6 mi
8:00 PM79 °FPartly cloudy.7 mph89%29.80 "Hg6 mi
7:30 PM77 °FPartly cloudy.6 mph94%29.74 "Hg5 mi
7:00 PM77 °FPartly cloudy.6 mph94%29.74 "Hg5 mi
6:30 PM79 °FPartly cloudy.7 mph89%29.74 "Hg5 mi
6:00 PM81 °FPartly cloudy.8 mph84%29.74 "Hg5 mi
5:30 PM81 °FBroken clouds.7 mph89%29.71 "Hg6 mi
5:00 PM81 °FBroken clouds.8 mph89%29.71 "Hg6 mi
4:30 PM81 °FBroken clouds.8 mph89%29.68 "Hg6 mi
4:00 PM81 °FBroken clouds.6 mph84%29.68 "Hg6 mi
3:30 PM81 °FBroken clouds.9 mph89%29.68 "Hg6 mi
3:00 PM81 °FBroken clouds.8 mph89%29.68 "Hg6 mi
2:30 PM81 °FCloudy.9 mph89%29.68 "Hg6 mi
2:00 PM81 °FLight rain. Cloudy.13 mph89%29.71 "Hg6 mi
1:30 PM81 °FLight rain. Cloudy.12 mph89%29.71 "Hg6 mi
12:30 PM82 °FCloudy.13 mph84%29.71 "HgN/A
12:00 PM82 °FCloudy.10 mph79%29.71 "HgN/A
11:30 AM84 °FCloudy.15 mph74%29.74 "HgN/A
11:00 AM86 °FCloudy.13 mph66%29.74 "HgN/A
10:30 AM86 °FCloudy.15 mph70%29.74 "HgN/A
10:00 AM86 °FCloudy.13 mph70%29.77 "HgN/A
9:30 AM84 °FBroken clouds.12 mph74%29.74 "HgN/A
9:00 AM81 °FBroken clouds.12 mph89%29.74 "HgN/A
8:00 AM79 °FLight rain. Broken clouds.6 mph94%29.71 "Hg5 mi
7:30 AM79 °FBroken clouds.9 mph89%29.71 "HgN/A
7:00 AM77 °FBroken clouds.10 mph94%29.68 "HgN/A
6:30 AM77 °FPartly sunny.9 mph94%29.68 "HgN/A
6:00 AM77 °FPartly sunny.7 mph94%29.65 "Hg6 mi
Weather by CustomWeather, © 2014

See weather overviewHow to use our weather pages